Regional Weather Roundup
Issued by NWS

Home | Current Version | Previous Version | Graphics & Text | Print | Product List | Glossary On
Versions: 1 2 3 4 5 6 7 8 9 10 11 12 13 14 15 16 17 18 19 20 21 22 23 24 25 26 27 28 29 30 31 32 33 34 35 36 37 38 39 40 41 42 43 44 45 46 47 48 49 50
338
ASUS43 KLSX 121507
RWRMO

WEATHER SUMMARY FOR MISSOURI
NATIONAL WEATHER SERVICE SPRINGFIELD MO
900 AM CST FRI FEB 12 2016

NOTE: "FAIR" INDICATES FEW OR NO CLOUDS BELOW 12,000 FEET WITH NO
       SIGNIFICANT WEATHER AND/OR OBSTRUCTIONS TO VISIBILITY.
       CURRENT SKY AND/OR WEATHER CONDITIONS ARE NOT AVAILABLE FOR
       CHILLICOTHE AND FARMINGTON.

MOZ001>031-035>038-043-044-053-054-121600-
...NORTHERN AND WESTERN MISSOURI...

CITY           SKY/WX    TMP DP  RH WIND       PRES   REMARKS
KANSAS CTY INT PTSUNNY   31  23  72 N15       30.36R WCI  20
KANSAS C DTWN  MOSUNNY   33  22  63 N13G20    30.37R WCI  24
LEE`S SUMMIT   CLOUDY    30  22  72 N14G21    30.36R WCI  19
ST JOSEPH      CLOUDY    29  21  72 N15       30.40R WCI  18
CHILLICOTHE      N/A     29  21  72 NW8       30.36R WCI  21
KIRKSVILLE     CLOUDY    24  18  77 N14G21    30.30R WCI  12

$$
MOZ066>068-077>081-088>096-101>105-121600-
...SOUTHWEST MISSOURI...

CITY           SKY/WX    TMP DP  RH WIND       PRES   REMARKS
SPRINGFIELD    PTSUNNY   34  24  67 N13       30.26R WCI  25
JOPLIN         SUNNY     34  25  69 N10       30.32R WCI  26

$$
MOZ032>034-039>042-045>050-055>058-069>072-121600-
...CENTRAL MISSOURI...

CITY           SKY/WX    TMP DP  RH WIND       PRES   REMARKS
COLUMBIA       CLOUDY    27  23  85 NW12      30.30R WCI  17
JEFFERSON CITY CLOUDY    28  24  85 NW7       30.32R WCI  21
ROLLA          CLOUDY    27  23  85 N8        30.25R WCI  19
SEDALIA        CLOUDY    30  21  69 N13       30.34R WCI  20
WARRENSBURG    CLOUDY    30  21  69 NW7       30.35R WCI  23
OSAGE BEACH    MOSUNNY   32  21  64 NW6       30.29R WCI  26

$$
MOZ051-052-059>065-121600-
...EAST CENTRAL MISSOURI...

CITY           SKY/WX    TMP DP  RH WIND       PRES   REMARKS
ST LOUIS INTL  CLOUDY    28  22  78 W6        30.28R WCI  22
SPIRIT OF STL  CLOUDY    27  23  85 NW7       30.28R WCI  19
ST CHARLES     CLOUDY    26  21  81 W7        30.28R WCI  18

$$
MOZ072>076-082>087-097>100-106>115-121600-
...SOUTH CENTRAL AND SOUTHEAST MISSOURI...

CITY           SKY/WX    TMP DP  RH WIND       PRES   REMARKS
CAPE GIRARDEAU CLOUDY    31  25  78 N6        30.25R WCI  25
FARMINGTON     CLOUDY    27  23  85 NW3       30.24R
POPLAR BLUFF   CLOUDY    34  22  61 N5        30.24R WCI  30
WEST PLAINS    PTSUNNY   37  23  56 NW9       30.23R

$$



USA.gov is the U.S. government's official web portal to all federal, state and local government web resources and services.